[[{"header":{"parameterUnit":"m.s-1","parameterCategory":1,"la1":30.2991,"la2":30.254,"lo1":-89.0895,"lo2":-89.0444,"dy":0.0017,"dx":0.0017,"nx":28,"ny":28,"refTime":"2023-03-18T21:00:00:Z","depth":0,"parameterNumber":2,"parameterNumberName":"U-component_of_WINDS"},"data":[0,0,0,0,0,0,0,0,0,0,0,0,0,0,0,0,0,0,0,0,0,0,0,0,0,0,0,0,0,0,0,0,0,0,0,0,0,0,0,0,0,0,0,0,0,0,0,0,0,0,0,0,0,0,0,0,0,0,0.6066,0.6065,0,0.6014,0.6013,0.6013,0.6004,0.6004,0.6005,0.6005,0.5949,0.5947,0.5945,0,0,0,0,0,0,0,0,0,0,0,0,0,0.6157,0.6155,0.6066,0.6065,0.6065,0.6014,0.6013,0.6012,0.6004,0.6004,0.6005,0.6005,0.5949,0.5947,0.5945,0,0,0,0,0,0,0,0,0,0,0,0,0,0.6112,0.6155,0.6066,0.6054,0.6053,0.6014,0.6013,0.6012,0.6003,0.6004,0.6005,0.6005,0.595,0.5947,0.5944,0.5913,0,0,0.5936,0.5934,0,0,0,0,0,0,0,0,0.6115,0.6109,0.6057,0.6055,0.6053,0.6016,0.6025,0.5979,0.6003,0.6022,0.6005,0.6006,0.597,0.5966,0.5954,0.591,0.5908,0.5935,0.5934,0.5932,0.5932,0,0,0,0,0,0,0,0.6118,0.6111,0.6045,0.6056,0.6054,0.6051,0.6046,0.6016,0.5993,0.6021,0.602,0.6014,0.597,0.5957,0.5953,0.5907,0.5935,0.5933,0.5931,0.593,0.5836,0.5835,0,0,0,0,0,0,0.6123,0.6114,0.6047,0.6044,0.6086,0.6049,0.6043,0.6027,0.5993,0.5989,0.6013,0.6014,0.5962,0.5956,0.5951,0.5912,0.5932,0.593,0.5928,0.5837,0.5836,0.5835,0,0,0,0,0,0,0.6125,0.6118,0.6049,0.6079,0.607,0.6047,0.6029,0.6026,0.6014,0.5988,0.5984,0.6005,0.5962,0.5955,0.5923,0.591,0.5928,0.5926,0.5837,0.5836,0.5835,0.5834,0,0,0,0,0,0,0.6128,0.6118,0.6106,0.6078,0.6068,0.6022,0.6029,0.6024,0.6009,0.6009,0.5979,0.5975,0.5962,0.5927,0.592,0.5906,0.5924,0.5838,0.5837,0.5836,0.5835,0.5833,0.5831,0,0,0,0,0,0.6131,0.6107,0.6106,0.6098,0.6053,0.6021,0.6015,0.6002,0.6008,0.5995,0.5979,0.5976,0.5913,0.5924,0.5916,0.5901,0.5839,0.5837,0.5836,0.5836,0.5833,0.5831,0,0,0,0,0,0,0.6133,0.6103,0.6101,0.6068,0.6047,0.602,0.6004,0.6,0.5977,0.5977,0.5962,0.5955,0.5924,0.5909,0.5922,0.587,0.5877,0.5873,0.588,0.5877,0.5875,0.5878,0.5921,0,0,0,0,0,0.6129,0.6107,0.6082,0.6055,0.6045,0.6026,0.6012,0.6004,0.5982,0.5973,0.5954,0.5932,0.5908,0.5892,0.5868,0.5834,0.5827,0.582,0.5818,0.5817,0.5813,0.5794,0.5791,0.5829,0.5829,0.5829,0,0,0.6121,0.6103,0.6089,0.6055,0.6038,0.6015,0.6019,0.5994,0.5976,0.5969,0.5937,0.5924,0.5898,0.5865,0.5849,0.5852,0.5802,0.5814,0.5813,0.5811,0.5792,0.5789,0.5785,0.5828,0.5828,0.5828,0,0,0.6095,0.6079,0.6055,0.6039,0.6014,0.6002,0.5996,0.597,0.5961,0.593,0.5924,0.5903,0.5861,0.5843,0.5829,0.5799,0.5794,0.5791,0.578,0.5762,0.5759,0.5756,0.5745,0.5741,0.5788,0.5788,0.5788,0,0.6088,0.6053,0.6042,0.6018,0.6003,0.5997,0.5972,0.5957,0.5925,0.5915,0.5919,0.5867,0.585,0.5813,0.5806,0.5794,0.5787,0.5793,0.5761,0.5758,0.5755,0.5744,0.574,0.5788,0.5788,0.5788,0.5788,0,0.6046,0.6022,0.6006,0.5977,0.596,0.5935,0.592,0.5905,0.5899,0.5887,0.5856,0.5835,0.5807,0.5798,0.5791,0.576,0.5763,0.5764,0.577,0.5751,0.5741,0.5737,0.5788,0.5788,0.5788,0.5788,0,0,0.6016,0.5984,0.5977,0.5965,0.5938,0.5919,0.5895,0.5869,0.5856,0.5835,0.5814,0.578,0.5782,0.5765,0.5757,0.5742,0.5719,0.5745,0.5744,0.574,0.5683,0.5681,0.5676,0.5717,0.5716,0.5715,0.5685,0,0.5986,0.5943,0.5933,0.5896,0.5874,0.587,0.5848,0.583,0.5818,0.5798,0.5785,0.5761,0.5765,0.5755,0.574,0.5725,0.5707,0.5727,0.5696,0.5695,0.5701,0.5671,0.5668,0.5641,0.5681,0.568,0.568,0,0.5944,0.5924,0.5885,0.5863,0.5853,0.5834,0.581,0.5791,0.577,0.5763,0.5746,0.574,0.5714,0.5724,0.5689,0.5703,0.569,0.5681,0.5679,0.5674,0.5685,0.5664,0.5631,0.5627,0.5673,0.5674,0.5674,0,0.5926,0.5889,0.5861,0.585,0.5823,0.581,0.5799,0.5779,0.5764,0.5743,0.5734,0.571,0.5696,0.5678,0.5666,0.5674,0.5632,0.564,0.5624,0.5624,0.5613,0.5614,0.5577,0.5608,0.5608,0.5608,0.5608,0,0.5892,0.5868,0.5852,0.5834,0.5808,0.5798,0.5771,0.5759,0.5742,0.5722,0.5717,0.5698,0.5684,0.5664,0.5654,0.5626,0.562,0.5613,0.5611,0.5613,0.5614,0.5603,0.5604,0.5607,0.5607,0.5607,0.5607,0,0.5865,0.5854,0.5823,0.5801,0.5796,0.5777,0.5758,0.5741,0.5731,0.5705,0.5699,0.5682,0.5658,0.5645,0.5614,0.5607,0.5576,0.5575,0.5583,0.5582,0.5566,0.5567,0.5519,0.5512,0.5549,0.5549,0.5549,0,0.5844,0.5825,0.5803,0.5789,0.5778,0.5756,0.5742,0.5732,0.5717,0.5694,0.5679,0.5655,0.5635,0.5596,0.5581,0.5558,0.5555,0.5541,0.5552,0.5555,0.5554,0.5555,0.5553,0.5538,0.5537,0.5537,0.5537,0,0.5806,0.5802,0.5782,0.576,0.5744,0.5726,0.5708,0.5698,0.5685,0.5669,0.5644,0.5629,0.5599,0.5575,0.5551,0.5538,0.5535,0.5534,0.5529,0.553,0.5535,0.5531,0.5576,0.5534,0.5535,0.5535,0.5535,0.5535,0.5781,0.5764,0.5746,0.5724,0.5711,0.5695,0.5678,0.5666,0.5646,0.5621,0.5617,0.5591,0.5572,0.554,0.5527,0.5507,0.551,0.5502,0.55,0.5498,0.5497,0.554,0.5502,0.5503,0.5503,0.5503,0.5503,0,0.5742,0.5731,0.5711,0.5687,0.567,0.5671,0.5652,0.5638,0.5615,0.5599,0.558,0.5552,0.553,0.5514,0.549,0.5477,0.5475,0.5471,0.5471,0.5468,0.5496,0.5503,0.5473,0.5473,0.5473,0.5473,0.5473,0.5473,0.572,0.5692,0.5686,0.5653,0.5641,0.5617,0.5606,0.5591,0.5578,0.5548,0.553,0.552,0.5504,0.548,0.5459,0.5455,0.5446,0.5442,0.5438,0.5463,0.5466,0.5469,0.5475,0.5441,0.544,0.5411,0.5411,0.5411]},{"header":{"parameterUnit":"m.s-1","parameterCategory":1,"la1":30.2991,"la2":30.254,"lo1":-89.0895,"lo2":-89.0444,"dy":0.0017,"dx":0.0017,"nx":28,"ny":28,"refTime":"2023-03-18T21:00:00:Z","depth":0,"parameterNumber":3,"parameterNumberName":"V-component_of_WINDS"},"data":[0,0,0,0,0,0,0,0,0,0,0,0,0,0,0,0,0,0,0,0,0,0,0,0,0,0,0,0,0,0,0,0,0,0,0,0,0,0,0,0,0,0,0,0,0,0,0,0,0,0,0,0,0,0,0,0,0,0,-6.253,-6.2532,0,-6.2724,-6.2727,-6.2729,-6.2673,-6.2669,-6.2665,-6.2661,-6.2857,-6.2866,-6.2875,0,0,0,0,0,0,0,0,0,0,0,0,0,-6.2105,-6.2113,-6.2529,-6.2532,-6.2534,-6.2724,-6.2727,-6.2729,-6.2673,-6.2669,-6.2664,-6.2659,-6.2854,-6.2865,-6.2875,0,0,0,0,0,0,0,0,0,0,0,0,0,-6.2293,-6.2116,-6.2529,-6.2529,-6.2531,-6.2724,-6.2727,-6.273,-6.2674,-6.2668,-6.2662,-6.2657,-6.2851,-6.2864,-6.2877,-6.308,0,0,-6.2918,-6.2924,0,0,0,0,0,0,0,0,-6.2283,-6.2309,-6.2527,-6.253,-6.2532,-6.2668,-6.2649,-6.2847,-6.2676,-6.262,-6.2661,-6.2654,-6.2799,-6.2816,-6.2866,-6.3089,-6.3097,-6.2919,-6.2927,-6.2933,-6.2937,0,0,0,0,0,0,0,-6.227,-6.23,-6.2606,-6.253,-6.2533,-6.2518,-6.2539,-6.2686,-6.2741,-6.2624,-6.2621,-6.2645,-6.2799,-6.2853,-6.287,-6.31,-6.2919,-6.2931,-6.2939,-6.2944,-6.3498,-6.3505,0,0,0,0,0,0,-6.2255,-6.229,-6.26,-6.2612,-6.239,-6.2531,-6.2554,-6.2631,-6.2739,-6.275,-6.265,-6.2642,-6.2833,-6.2854,-6.2877,-6.3121,-6.2933,-6.2945,-6.2953,-6.3492,-6.35,-6.3507,0,0,0,0,0,0,-6.2246,-6.2284,-6.2592,-6.245,-6.2488,-6.2545,-6.2632,-6.2638,-6.2691,-6.2758,-6.2767,-6.2695,-6.2829,-6.2858,-6.303,-6.3127,-6.2952,-6.2964,-6.3484,-6.3494,-6.3503,-6.3612,0,0,0,0,0,0,-6.2234,-6.2281,-6.2359,-6.2452,-6.2496,-6.2744,-6.2638,-6.2646,-6.2715,-6.2706,-6.2803,-6.2813,-6.2827,-6.301,-6.3043,-6.3143,-6.2974,-6.3475,-6.3488,-6.35,-6.36,-6.3624,-6.3645,0,0,0,0,0,-6.222,-6.2381,-6.2364,-6.2401,-6.2596,-6.275,-6.2774,-6.2788,-6.2723,-6.2802,-6.2845,-6.281,-6.3111,-6.3028,-6.3065,-6.317,-6.3469,-6.3485,-6.3499,-6.359,-6.362,-6.3645,0,0,0,0,0,0,-6.2297,-6.2394,-6.2375,-6.2572,-6.2653,-6.274,-6.284,-6.2819,-6.2919,-6.2907,-6.2917,-6.294,-6.3116,-6.3159,-6.3066,-6.3371,-6.328,-6.3304,-6.3337,-6.3366,-6.3388,-6.3374,-6.2985,0,0,0,0,0,-6.2338,-6.2456,-6.2533,-6.2699,-6.2741,-6.2784,-6.2851,-6.2854,-6.2938,-6.2972,-6.3027,-6.3109,-6.3221,-6.3296,-6.3403,-6.3605,-6.3625,-6.3695,-6.3718,-6.3736,-6.3757,-6.3867,-6.3899,-6.3556,-6.3556,-6.3556,0,0,-6.2422,-6.2489,-6.2563,-6.2716,-6.278,-6.2901,-6.2813,-6.2944,-6.3034,-6.2991,-6.3158,-6.3201,-6.3292,-6.3481,-6.3566,-6.3523,-6.3855,-6.3756,-6.377,-6.378,-6.3885,-6.3918,-6.3947,-6.3566,-6.3565,-6.3563,0,0,-6.2637,-6.27,-6.2846,-6.2911,-6.3008,-6.3035,-6.307,-6.316,-6.3188,-6.3355,-6.3325,-6.3431,-6.3625,-6.3692,-6.3751,-6.3991,-6.3963,-6.4025,-6.4145,-6.4252,-6.4279,-6.4303,-6.4389,-6.4419,-6.4045,-6.4045,-6.4045,0,-6.2729,-6.2912,-6.2923,-6.3058,-6.3126,-6.3093,-6.324,-6.3303,-6.3429,-6.3477,-6.3426,-6.3669,-6.3729,-6.3932,-6.399,-6.4039,-6.4079,-6.4015,-6.4274,-6.4298,-6.4321,-6.4403,-6.4435,-6.4052,-6.4051,-6.4051,-6.405,0,-6.302,-6.3147,-6.3253,-6.3377,-6.3457,-6.3597,-6.3628,-6.3708,-6.3703,-6.3735,-6.3906,-6.3976,-6.4097,-6.4145,-6.4142,-6.4348,-6.4318,-6.4271,-6.418,-6.436,-6.4438,-6.4469,-6.4062,-6.406,-6.4058,-6.4056,0,0,-6.3292,-6.342,-6.3459,-6.3515,-6.3619,-6.3717,-6.3855,-6.3974,-6.4042,-6.413,-6.4246,-6.441,-6.4367,-6.4435,-6.4438,-6.4532,-6.4718,-6.4474,-6.4476,-6.4517,-6.495,-6.4985,-6.5022,-6.4699,-6.4705,-6.471,-6.4942,0,-6.3517,-6.3761,-6.3775,-6.3996,-6.4113,-6.4083,-6.4203,-6.4279,-6.4313,-6.4415,-6.4451,-6.4568,-6.4502,-6.4543,-6.4634,-6.4676,-6.4805,-6.4659,-6.4807,-6.4812,-6.4786,-6.5062,-6.51,-6.5316,-6.4972,-6.4977,-6.4981,0,-6.3812,-6.3911,-6.4144,-6.4232,-6.4281,-6.4389,-6.4499,-6.4598,-6.4683,-6.4701,-6.4776,-6.4766,-6.4906,-6.481,-6.5002,-6.4903,-6.4963,-6.4993,-6.5001,-6.5017,-6.4908,-6.5085,-6.5385,-6.5418,-6.5029,-6.5025,-6.5022,0,-6.3988,-6.4178,-6.4343,-6.4391,-6.4497,-6.4574,-6.4621,-6.4701,-6.4771,-6.4867,-6.4913,-6.5023,-6.5084,-6.5169,-6.5189,-6.5117,-6.5382,-6.5286,-6.54,-6.5399,-6.5458,-6.5454,-6.5773,-6.5495,-6.5495,-6.5494,-6.5493,0,-6.4239,-6.4383,-6.4423,-6.4524,-6.4684,-6.4697,-6.4855,-6.4897,-6.4968,-6.5076,-6.5056,-6.5157,-6.5176,-6.5282,-6.5297,-6.5455,-6.5482,-6.5499,-6.5502,-6.5502,-6.55,-6.5543,-6.5529,-6.5503,-6.5501,-6.5499,-6.5498,0,-6.4462,-6.4495,-6.4673,-6.4758,-6.4783,-6.4897,-6.497,-6.5066,-6.5097,-6.5234,-6.5266,-6.5314,-6.5437,-6.5464,-6.561,-6.562,-6.5807,-6.5794,-6.5779,-6.5778,-6.589,-6.588,-6.6248,-6.6297,-6.5987,-6.599,-6.5992,0,-6.4621,-6.4731,-6.4829,-6.49,-6.4952,-6.5067,-6.5139,-6.5155,-6.5231,-6.5337,-6.542,-6.5541,-6.5638,-6.5836,-6.5882,-6.5993,-6.5984,-6.6105,-6.6,-6.5997,-6.5987,-6.5981,-6.5992,-6.6126,-6.6129,-6.6132,-6.6134,0,-6.4899,-6.491,-6.5015,-6.5128,-6.5215,-6.5303,-6.5387,-6.5446,-6.5474,-6.556,-6.5686,-6.5762,-6.5911,-6.6031,-6.6142,-6.6189,-6.6167,-6.6166,-6.6199,-6.62,-6.6187,-6.6197,-6.5835,-6.6158,-6.6156,-6.6154,-6.6153,-6.6152,-6.5096,-6.5193,-6.5277,-6.5395,-6.546,-6.5539,-6.5634,-6.5676,-6.5782,-6.5906,-6.5908,-6.6045,-6.6126,-6.6274,-6.6327,-6.6434,-6.6396,-6.6443,-6.6455,-6.6467,-6.6477,-6.6169,-6.6454,-6.6453,-6.6453,-6.6452,-6.6452,0,-6.5374,-6.5426,-6.5535,-6.5654,-6.5747,-6.5718,-6.5809,-6.5889,-6.601,-6.6088,-6.6185,-6.6329,-6.6445,-6.6501,-6.6615,-6.669,-6.6682,-6.6719,-6.6714,-6.6726,-6.6504,-6.6465,-6.6723,-6.6723,-6.6723,-6.6723,-6.6723,-6.6723,-6.5529,-6.5692,-6.5712,-6.5906,-6.5957,-6.6092,-6.6147,-6.6219,-6.6282,-6.6444,-6.6541,-6.6577,-6.6646,-6.6765,-6.6869,-6.6883,-6.6926,-6.6969,-6.6977,-6.6769,-6.6741,-6.6715,-6.6679,-6.6978,-6.6978,-6.719,-6.7192,-6.7193]}]]